DON PEDRO RESERVOIR (DNP)

Elevation: 830' · TUOLUMNE R basin · Operator: Turlock Irrigation District

Provisional data, subject to change.
Query executed Thursday at 20:49:10   clock

Select a sensor type for a plot of data.
Note: Reservoir Flows are daily averages.

Earlier

Date RES ELE    STORAGE    RES CHG    TOC STO    ABV TOC    OUTFLOW    INFLOW    PPT INC   
 FEET   AF   AF   AF   AF   CFS   CFS   INCHES  
10/01/2014 695.67 774830 -- 1760300 -- 2136 849 0.00
10/02/2014 695.32 771650 -- 1748600 -976950 1491 -115 0.00
10/03/2014 694.97 770380 -- 1736900 -- 1484 844 0.00
10/04/2014 694.87 769110 -- 1725200 -- 604 -35 0.00
10/05/2014 694.52 767200 -- 1713400 -946200 1364 405 0.00
10/06/2014 693.86 762780 -4420 1701700 -938920 2338 106 0.00
10/07/2014 693.36 759630 -3469 1690000 -930370 1708 119 0.00
10/08/2014 693.13 758370 -- 1690000 -931630 847 212 0.00
10/09/2014 693.16 758996 -- 1690000 -931000 139 456 0.00
10/10/2014 693.23 759185 -- 1690000 -- 115 115 0.00
10/11/2014 693.27 759437 -- 1690000 -- 116 116 0.00
10/12/2014 693.31 758996 -- 1690000 -- 116 116 0.00
10/13/2014 693.23 758996 -- 1690000 -931004 r 535 535 0.00
10/14/2014 693.10 758367 -- 1690000 -931630 502 502 0.00
10/15/2014 693.05 758367 -- 1690000 -931633 r 161 161 0.00
10/16/2014 692.94 756483 -- 1690000 -933517 502 -448 0.00
10/17/2014 692.88 756483 -- 1690000 -- 209 209 0.00
10/18/2014 692.86 756483 -- 1690000 -- 168 168 0.00
10/19/2014 692.84 756743 e -- 1690000 -934145 313 -4 0.00
10/20/2014 692.81 756546 -- 1690000 -934145 223 223 0.00
10/21/2014 692.80 756483 e -- 1690000 -934145 171 171 0.00
10/22/2014 692.80 756483 e -- 1690000 -934145 170 170 0.00
10/23/2014 692.82 756609 e -- 1690000 -- 172 172 0.00
10/24/2014 692.81 755855 -- 1690000 -- 170 170 0.00
10/25/2014 692.82 755855 -- 1690000 -- 172 172 0.00
10/26/2014 692.84 755855 -- 1690000 -934145 171 171 0.00
10/27/2014 692.88 756483 -- 1690000 -933517 171 488 0.00
10/28/2014 692.80 756483 -- 1690000 -933517 171 171 0.00
10/29/2014 692.89 756483 -- 1690000 -933517 173 173 0.00
10/30/2014 -- -- -- -- -- -- -- --

Later | Latest

Warning! This data is preliminary and subject to revision.

Show DNP Map | Plot DNP Data | 1 Month DNP Data | Real-Time DNP Data | DNP Info